User: anonymous   Login
Location: Unspecified
(0.0000°N, 0.0000°E)
Time: 01:57:05
(UTC+00:00)
Language:

CUBESAT XI-V - Orbit

View from above orbital plane
View from above orbital plane
View from above satellite
View from above satellite

Ground track
Ground track

The orbit data is extracted from the following two-line orbital elements,

1 28895U 05043F   17147.66089382 +.00000166 +00000-0 +40815-4 0  9991
2 28895 097.8627 310.9020 0016276 204.0586 155.9858 14.63392424617480
Epoch (UTC): 27 May 2017 15:51:41
Eccentricity: 0.0016276
inclination: 97.8627°
perigee height: 671 km
apogee height: 694 km
right ascension of ascending node: 310.9020°
argument of perigee: 204.0586°
revolutions per day: 14.63392424
mean anomaly at epoch: 155.9858°
orbit number at epoch: 61748

The dashed part of the orbit path shows where the satellite is in the earth's shadow,  

DLR